TimeCST,TemperatureF,Dew PointF,Humidity,Sea Level PressureIn,VisibilityMPH,Wind Direction,Wind SpeedMPH,Gust SpeedMPH,PrecipitationIn,Events,Conditions,WindDirDegrees,DateUTC
12:54 AM,10.9,-2.9,54,30.36,10.0,WNW,19.6,28.8,N/A,,Clear,300,2012-02-12 06:54:00
1:54 AM,10.0,-2.9,56,30.37,10.0,WNW,16.1,-,N/A,,Clear,300,2012-02-12 07:54:00
2:54 AM,10.0,-4.0,53,30.36,10.0,WNW,18.4,24.2,N/A,,Clear,300,2012-02-12 08:54:00
3:54 AM,9.0,-4.0,56,30.36,10.0,WNW,15.0,24.2,N/A,,Clear,300,2012-02-12 09:54:00
4:54 AM,8.1,-4.0,58,30.37,10.0,WNW,15.0,-,N/A,,Clear,300,2012-02-12 10:54:00
5:54 AM,7.0,-4.0,61,30.37,10.0,WNW,15.0,-,N/A,,Clear,290,2012-02-12 11:54:00
6:54 AM,7.0,-4.0,61,30.37,10.0,WNW,15.0,-,N/A,,Clear,300,2012-02-12 12:54:00
7:54 AM,8.1,-4.0,58,30.36,10.0,WNW,13.8,-,N/A,,Clear,300,2012-02-12 13:54:00
8:54 AM,10.9,-2.9,54,30.37,10.0,WNW,18.4,-,N/A,,Clear,300,2012-02-12 14:54:00
9:54 AM,12.9,-0.9,54,30.36,10.0,WNW,16.1,-,N/A,,Clear,290,2012-02-12 15:54:00
10:54 AM,16.0,-0.0,49,30.35,10.0,West,15.0,23.0,N/A,,Clear,280,2012-02-12 16:54:00
11:54 AM,19.9,-0.0,42,30.33,10.0,WNW,15.0,-,N/A,,Clear,290,2012-02-12 17:54:00
12:54 PM,23.0,1.9,40,30.30,10.0,WNW,13.8,-,N/A,,Clear,290,2012-02-12 18:54:00
1:54 PM,25.0,1.9,37,30.27,10.0,WNW,11.5,-,N/A,,Clear,290,2012-02-12 19:54:00
2:54 PM,26.1,1.0,34,30.26,10.0,West,10.4,-,N/A,,Clear,270,2012-02-12 20:54:00
3:54 PM,26.1,1.9,35,30.24,10.0,West,12.7,-,N/A,,Clear,280,2012-02-12 21:54:00
4:54 PM,25.0,1.9,37,30.22,10.0,West,5.8,-,N/A,,Clear,270,2012-02-12 22:54:00
5:54 PM,23.0,1.9,40,30.22,10.0,West,5.8,-,N/A,,Clear,260,2012-02-12 23:54:00
6:54 PM,21.0,1.0,42,30.22,10.0,West,6.9,-,N/A,,Clear,260,2012-02-13 00:54:00
7:54 PM,19.9,1.0,44,30.21,10.0,West,5.8,-,N/A,,Clear,260,2012-02-13 01:54:00
8:54 PM,19.0,-0.0,43,30.19,10.0,West,5.8,-,N/A,,Clear,260,2012-02-13 02:54:00
9:54 PM,17.1,1.0,50,30.18,10.0,Calm,Calm,-,N/A,,Clear,0,2012-02-13 03:54:00
10:54 PM,16.0,-0.0,49,30.17,10.0,WSW,4.6,-,N/A,,Clear,240,2012-02-13 04:54:00
11:54 PM,18.0,-0.0,45,30.14,10.0,West,5.8,-,N/A,,Clear,260,2012-02-13 05:54:00